Hourly Weather Rudokopy

Today, 10 April, Saturday

Time Temperature Precipitation Wind Pressure Humidity
00:00 +1°C° 0 mm 3 mps 749 mmHg 67%
01:00 0°C° 0 mm 3 mps 749 mmHg 68%
02:00 0°C° 0 mm 3 mps 748 mmHg 70%
03:00 0°C° 0 mm 3 mps 748 mmHg 70%
04:00 0°C° 0 mm 3 mps 748 mmHg 70%
05:00 0°C° 0 mm 3 mps 748 mmHg 70%
06:00 0°C° 0 mm 4 mps 748 mmHg 65%
07:00 +2°C° 0 mm 5 mps 748 mmHg 59%
08:00 +3°C° 0 mm 5 mps 748 mmHg 54%
09:00 +5°C° 0 mm 6 mps 748 mmHg 50%
10:00 +7°C° 0 mm 6 mps 748 mmHg 46%
11:00 +9°C° 0 mm 7 mps 748 mmHg 41%
12:00 +10°C° 0 mm 6 mps 748 mmHg 40%
13:00 +10°C° 0 mm 6 mps 748 mmHg 38%
14:00 +11°C° 0 mm 6 mps 747 mmHg 37%
15:00 +12°C° 0 mm 5 mps 747 mmHg 39%
16:00 +12°C° 0 mm 4 mps 747 mmHg 41%
17:00 +12°C° 0 mm 4 mps 747 mmHg 44%
18:00 +10°C° 0 mm 4 mps 747 mmHg 49%
19:00 +8°C° 0 mm 3 mps 748 mmHg 54%
20:00 +7°C° 0 mm 3 mps 748 mmHg 60%
21:00 +5°C° 0 mm 3 mps 748 mmHg 61%
22:00 +4°C° 0 mm 3 mps 748 mmHg 63%
23:00 +4°C° 0 mm 3 mps 749 mmHg 65%

Tomorrow, 11 April, Sunday

Time Temperature Precipitation Wind Pressure Humidity
00:00 +3°C° 0 mm 3 mps 749 mmHg 66%
01:00 +3°C° 0 mm 3 mps 749 mmHg 67%
02:00 +3°C° 0 mm 3 mps 749 mmHg 68%
03:00 +2°C° 0 mm 3 mps 749 mmHg 69%
04:00 +2°C° 0 mm 3 mps 749 mmHg 69%
05:00 +2°C° 0 mm 3 mps 750 mmHg 69%
06:00 +3°C° 0 mm 3 mps 750 mmHg 65%
07:00 +5°C° 0 mm 3 mps 750 mmHg 60%
08:00 +7°C° 0 mm 3 mps 750 mmHg 55%
09:00 +8°C° 0 mm 4 mps 751 mmHg 50%
10:00 +11°C° 0 mm 4 mps 751 mmHg 45%
11:00 +12°C° 0 mm 4 mps 751 mmHg 40%
12:00 +13°C° 0 mm 4 mps 751 mmHg 38%
13:00 +14°C° 0 mm 4 mps 750 mmHg 36%
14:00 +14°C° 0 mm 3 mps 750 mmHg 34%
15:00 +14°C° 0 mm 3 mps 750 mmHg 36%
16:00 +14°C° 0 mm 3 mps 750 mmHg 38%
17:00 +14°C° 0 mm 3 mps 750 mmHg 40%
18:00 +12°C° 0 mm 3 mps 750 mmHg 45%
19:00 +10°C° 0 mm 3 mps 750 mmHg 51%
20:00 +8°C° 0 mm 3 mps 750 mmHg 56%
21:00 +7°C° 0 mm 3 mps 750 mmHg 58%
22:00 +7°C° 0 mm 3 mps 750 mmHg 60%
23:00 +5°C° 0 mm 3 mps 750 mmHg 62%

Day after tomorrow, 12 April, Monday

Time Temperature Precipitation Wind Pressure Humidity
00:00 +4°C° 0 mm 3 mps 750 mmHg 63%
01:00 +4°C° 0 mm 3 mps 750 mmHg 65%
02:00 +4°C° 0 mm 3 mps 750 mmHg 66%
03:00 +3°C° 0 mm 3 mps 750 mmHg 67%
04:00 +3°C° 0 mm 3 mps 749 mmHg 67%
05:00 +3°C° 0 mm 3 mps 749 mmHg 68%
06:00 +4°C° 0 mm 3 mps 749 mmHg 64%
07:00 +7°C° 0 mm 3 mps 749 mmHg 60%
08:00 +8°C° 0 mm 3 mps 749 mmHg 56%
09:00 +10°C° 0 mm 3 mps 748 mmHg 51%
10:00 +11°C° 0 mm 3 mps 748 mmHg 46%
11:00 +13°C° 0 mm 3 mps 748 mmHg 40%
12:00 +14°C° 0 mm 3 mps 747 mmHg 38%
13:00 +16°C° 0 mm 2 mps 747 mmHg 36%
14:00 +16°C° 0 mm 2 mps 747 mmHg 35%
15:00 +16°C° 0 mm 2 mps 746 mmHg 36%
16:00 +16°C° 0 mm 2 mps 746 mmHg 38%
17:00 +16°C° 0 mm 2 mps 746 mmHg 40%
18:00 +14°C° 0 mm 2 mps 746 mmHg 46%
19:00 +11°C° 0 mm 3 mps 746 mmHg 52%
20:00 +9°C° 0 mm 3 mps 746 mmHg 59%
21:00 +8°C° 0 mm 3 mps 746 mmHg 66%
22:00 +8°C° 0 mm 3 mps 746 mmHg 73%
23:00 +7°C° 0 mm 3 mps 746 mmHg 81%

13 April, Tuesday

Time Temperature Precipitation Wind Pressure Humidity
00:00 +6°C° 0 mm 2 mps 745 mmHg 81%
01:00 +6°C° 0 mm 2 mps 745 mmHg 81%
02:00 +6°C° 0 mm 2 mps 745 mmHg 82%
03:00 +6°C° 0 mm 2 mps 745 mmHg 82%
04:00 +7°C° 0 mm 1 mps 745 mmHg 81%
05:00 +6°C° 0 mm 1 mps 745 mmHg 81%
06:00 +8°C° 0 mm 1 mps 745 mmHg 75%
07:00 +9°C° 0 mm 1 mps 745 mmHg 69%
08:00 +11°C° 0 mm 1 mps 745 mmHg 63%
09:00 +13°C° 0 mm 2 mps 745 mmHg 57%
10:00 +14°C° 0 mm 2 mps 744 mmHg 51%
11:00 +16°C° 0 mm 2 mps 744 mmHg 45%
12:00 +17°C° 0 mm 2 mps 744 mmHg 44%
13:00 +17°C° 0 mm 2 mps 744 mmHg 43%
14:00 +18°C° 0 mm 2 mps 743 mmHg 42%
15:00 +18°C° 0 mm 2 mps 743 mmHg 45%
16:00 +18°C° 0 mm 2 mps 743 mmHg 48%
17:00 +17°C° 0 mm 3 mps 742 mmHg 51%
18:00 +16°C° 0 mm 3 mps 742 mmHg 61%
19:00 +13°C° 0 mm 3 mps 742 mmHg 71%
20:00 +11°C° 0 mm 3 mps 742 mmHg 81%
21:00 +10°C° 0 mm 3 mps 742 mmHg 84%
22:00 +10°C° 0 mm 3 mps 742 mmHg 87%
23:00 +9°C° 0 mm 3 mps 742 mmHg 90%

14 April, Wednesday

Time Temperature Precipitation Wind Pressure Humidity
00:00 +9°C° 0 mm 3 mps 741 mmHg 90%
01:00 +9°C° 0 mm 3 mps 741 mmHg 91%
02:00 +9°C° 0 mm 2 mps 741 mmHg 92%
03:00 +9°C° 0 mm 3 mps 741 mmHg 91%
04:00 +9°C° 0 mm 3 mps 740 mmHg 91%
05:00 +9°C° 0 mm 3 mps 740 mmHg 90%
06:00 +9°C° 0 mm 3 mps 740 mmHg 86%
07:00 +10°C° 0 mm 3 mps 740 mmHg 82%
08:00 +10°C° 0 mm 4 mps 740 mmHg 78%
09:00 +11°C° 0 mm 4 mps 740 mmHg 74%
10:00 +12°C° 0 mm 4 mps 740 mmHg 69%
11:00 +13°C° 0 mm 4 mps 739 mmHg 64%
12:00 +13°C° 0.1 mm 4 mps 739 mmHg 64%
13:00 +13°C° 0.1 mm 5 mps 739 mmHg 63%
14:00 +13°C° 0.1 mm 5 mps 739 mmHg 62%
15:00 +12°C° 0 mm 5 mps 739 mmHg 65%
16:00 +10°C° 0 mm 5 mps 739 mmHg 69%
17:00 +11°C° 0 mm 4 mps 738 mmHg 72%
18:00 +10°C° 0 mm 4 mps 738 mmHg 73%
19:00 +10°C° 0 mm 4 mps 738 mmHg 75%
20:00 +10°C° 0 mm 3 mps 738 mmHg 76%
21:00 +9°C° 0 mm 3 mps 738 mmHg 79%
22:00 +9°C° 0 mm 3 mps 738 mmHg 82%
23:00 +8°C° 0 mm 3 mps 738 mmHg 85%

15 April, Thursday

Time Temperature Precipitation Wind Pressure Humidity
00:00 +8°C° 0.1 mm 3 mps 737 mmHg 86%
01:00 +8°C° 0.1 mm 3 mps 737 mmHg 88%
02:00 +8°C° 0.1 mm 3 mps 737 mmHg 90%
03:00 +8°C° 0.2 mm 3 mps 736 mmHg 91%
04:00 +8°C° 0.2 mm 3 mps 736 mmHg 93%
05:00 +7°C° 0.2 mm 4 mps 736 mmHg 94%
06:00 +8°C° 0.1 mm 3 mps 736 mmHg 94%
07:00 +8°C° 0.1 mm 3 mps 736 mmHg 94%
08:00 +8°C° 0.1 mm 3 mps 736 mmHg 94%
09:00 +9°C° 0.2 mm 3 mps 736 mmHg 92%
10:00 +9°C° 0.2 mm 3 mps 736 mmHg 90%
11:00 +9°C° 0.2 mm 3 mps 735 mmHg 88%
12:00 +9°C° 1.3 mm 3 mps 735 mmHg 90%
13:00 +7°C° 1.3 mm 4 mps 735 mmHg 91%
14:00 +6°C° 1.3 mm 4 mps 735 mmHg 92%
15:00 +6°C° 0.3 mm 4 mps 736 mmHg 89%
16:00 +7°C° 0.3 mm 3 mps 736 mmHg 86%
17:00 +7°C° 0.3 mm 3 mps 736 mmHg 82%
18:00 +5°C° 0 mm 3 mps 736 mmHg 83%
19:00 +5°C° 0 mm 3 mps 736 mmHg 83%
20:00 +4°C° 0 mm 3 mps 736 mmHg 83%
21:00 +5°C° 0 mm 2 mps 736 mmHg 83%
22:00 +4°C° 0 mm 2 mps 736 mmHg 84%
23:00 +4°C° 0 mm 2 mps 736 mmHg 84%
Show more